FW7399 Weather Reports


Display with metric or nautical units.
time (UTC)temp
F
wind
direction
speed
MPH
gust
MPH
rain 1hr
in
rain 24hr
in
rain mn
in
humidity
%
barometer
mb
20260906182404 69 132 11.0 16.0 0.13 2.08 2.08 95 1017.3
20260906181404 69 129 8.0 12.0 0.15 2.06 2.06 94 1017.5
20260906180903 69 133 14.0 20.0 0.16 2.04 2.04 94 1017.5
20260906180404 70 112 14.0 17.0 0.18 2.03 2.03 94 1017.4
20260906175403 70 120 14.0 26.0 0.25 2.00 2.00 92 1017.5
20260906174403 69 108 27.0 38.0 0.59 1.98 1.98 91 1016.2
20260906173904 68 104 19.0 28.0 0.84 1.98 1.98 89 1015.8
20260906173404 68 109 21.0 35.0 1.01 1.98 1.98 89 1015.6
20260906172903 67 113 23.0 29.0 1.18 1.97 1.97 91 1015.9
20260906172404 66 113 23.0 30.0 1.46 1.95 1.95 94 1016.0
20260906171904 66 111 24.0 35.0 1.58 1.94 1.94 95 1016.7
20260906171404 67 117 18.0 28.0 1.74 1.91 1.91 97 1017.3
20260906170403 67 121 14.0 20.0 1.85 1.85 1.85 97 1017.5
20260906165904 67 108 14.0 20.0 1.82 1.82 1.82 97 1017.0
20260906165404 67 101 17.0 23.0 1.75 1.75 1.75 98 1016.9
20260906164904 66 114 17.0 23.0 1.61 1.61 1.61 97 1017.4
20260906163404 66 102 12.0 18.0 0.97 0.97 0.97 97 1018.5
20260906162904 67 73 13.0 22.0 0.79 0.79 0.79 97 1018.1
20260906162404 67 89 10.0 17.0 0.49 0.49 0.49 97 1017.2
20260906161904 67 50 17.0 25.0 0.36 0.36 0.36 96 1016.4
20260906161404 67 15 24.0 32.0 0.17 0.17 0.17 95 1016.4
20260906160903 68 38 20.0 32.0 0.02 0.02 0.02 94 1017.1
20260906160404 67 41 12.0 20.0 0.00 0.00 0.00 93 1017.7
20260906155904 67 67 19.0 36.0 0.00 0.00 0.00 92 1016.5
20260906155404 68 58 21.0 35.0 0.00 0.00 0.00 88 1016.1
20260906154903 70 22 13.0 21.0 0.00 0.01 0.00 85 1016.7
20260906153904 72 46 17.0 24.0 0.00 0.01 0.00 91 1016.5
20260906153404 73 77 10.0 20.0 0.00 0.02 0.00 98 1016.2
20260906152903 72 106 11.0 13.0 0.00 0.03 0.00 99 1015.8
20260906152404 72 90 10.0 14.0 0.00 0.05 0.00 98 1015.6
20260906151903 72 94 9.0 14.0 0.00 0.07 0.00 98 1015.6
20260906151403 72 92 9.0 12.0 0.00 0.08 0.00 98 1015.5
20260906150403 72 106 12.0 15.0 0.00 0.11 0.00 98 1015.4
20260906145904 72 117 9.0 14.0 0.00 0.12 0.00 99 1015.4
20260906144904 72 133 8.0 12.0 0.00 0.12 0.00 99 1015.3
20260906144404 72 127 11.0 14.0 0.00 0.12 0.00 99 1015.4
20260906141904 72 124 9.0 15.0 0.00 0.17 0.00 99 1015.7
20260906141403 72 119 10.0 15.0 0.00 0.18 0.00 99 1015.6
20260906140404 72 134 9.0 13.0 0.00 0.19 0.00 99 1015.6
20260906135404 72 129 11.0 14.0 0.00 0.20 0.00 99 1015.5
20260906134903 71 126 10.0 15.0 0.00 0.20 0.00 99 1015.5
20260906134403 72 126 10.0 14.0 0.00 0.20 0.00 99 1015.4
20260906133904 72 131 9.0 13.0 0.00 0.20 0.00 99 1015.4
20260906133404 72 135 8.0 12.0 0.00 0.20 0.00 99 1015.3
20260906132903 71 142 9.0 14.0 0.00 0.20 0.00 99 1015.2
20260906131903 71 136 9.0 13.0 0.00 0.20 0.00 99 1015.1
20260906131404 71 129 8.0 12.0 0.00 0.20 0.00 99 1015.3
20260906130904 71 133 7.0 12.0 0.00 0.20 0.00 99 1015.3
20260906130404 71 140 9.0 12.0 0.00 0.20 0.00 99 1015.3
20260906125903 71 132 7.0 12.0 0.00 0.20 0.00 99 1015.3
20260906124904 71 127 9.0 12.0 0.00 0.20 0.00 99 1015.4
20260906124403 71 126 8.0 12.0 0.00 0.20 0.00 99 1015.4
20260906123903 71 127 7.0 12.0 0.00 0.20 0.00 99 1015.3
20260906123404 71 129 7.0 12.0 0.00 0.20 0.00 99 1015.2
20260906122903 71 125 8.0 13.0 0.00 0.20 0.00 99 1015.2
20260906121903 71 131 9.0 12.0 0.00 0.20 0.00 99 1015.2
20260906120903 71 140 9.0 13.0 0.00 0.20 0.00 99 1014.9
20260906120404 71 142 9.0 14.0 0.00 0.20 0.00 99 1014.8
20260906115904 71 140 10.0 13.0 0.00 0.20 0.00 99 1014.8
20260906115403 71 136 7.0 12.0 0.00 0.20 0.00 99 1014.8
20260906114904 71 132 9.0 14.0 0.00 0.20 0.00 99 1014.6
20260906113904 71 132 8.0 12.0 0.00 0.20 0.00 99 1014.6
20260906113404 71 125 9.0 12.0 0.00 0.20 0.00 99 1014.6
20260906112403 71 138 9.0 13.0 0.00 0.20 0.00 99 1014.6
20260906111904 71 128 10.0 14.0 0.00 0.20 0.00 99 1014.5
20260906111404 71 125 9.0 12.0 0.00 0.20 0.00 99 1014.6
20260906105903 71 135 9.0 13.0 0.00 0.20 0.00 99 1014.7
20260906105404 71 130 7.0 12.0 0.00 0.20 0.00 99 1014.7
20260906104904 71 136 10.0 13.0 0.00 0.20 0.00 99 1014.7
20260906104404 71 132 8.0 13.0 0.00 0.20 0.00 99 1014.7
20260906103404 71 133 10.0 13.0 0.00 0.20 0.00 99 1014.7
20260906102904 71 129 8.0 12.0 0.00 0.20 0.00 99 1014.8
20260906101904 71 137 9.0 13.0 0.00 0.20 0.00 99 1014.9
20260906101404 71 126 9.0 12.0 0.00 0.20 0.00 99 1014.9
20260906100904 71 132 8.0 12.0 0.00 0.20 0.00 99 1014.9
20260906100403 71 138 9.0 12.0 0.00 0.20 0.00 100 1014.9
20260906095403 71 137 8.0 13.0 0.00 0.20 0.00 99 1014.8
20260906094903 71 140 9.0 14.0 0.00 0.20 0.00 99 1014.8
20260906093903 71 135 8.0 12.0 0.00 0.20 0.00 99 1014.7
20260906093404 71 130 7.0 13.0 0.00 0.20 0.00 99 1014.7
20260906092903 71 128 9.0 13.0 0.00 0.20 0.00 99 1014.6
20260906092403 71 131 10.0 15.0 0.00 0.20 0.00 99 1014.6
20260906091903 71 130 10.0 13.0 0.00 0.20 0.00 99 1014.5
20260906091403 71 128 8.0 13.0 0.00 0.20 0.00 99 1014.5
20260906090904 71 134 9.0 14.0 0.00 0.20 0.00 99 1014.5
20260906090404 71 127 7.0 13.0 0.00 0.20 0.00 99 1014.5
20260906085403 71 127 7.0 12.0 0.00 0.20 0.00 99 1014.4
20260906083904 71 131 9.0 13.0 0.00 0.20 0.00 99 1014.4
20260906083404 71 124 10.0 14.0 0.00 0.20 0.00 99 1014.4
20260906082904 71 119 9.0 13.0 0.00 0.20 0.00 99 1014.3
20260906082404 71 123 10.0 13.0 0.00 0.20 0.00 99 1014.2
20260906081903 71 123 9.0 12.0 0.00 0.20 0.00 99 1014.3
20260906081404 71 115 10.0 12.0 0.00 0.20 0.00 99 1014.4
20260906080904 71 116 9.0 12.0 0.00 0.20 0.00 99 1014.4
20260906080404 71 121 7.0 12.0 0.00 0.20 0.00 99 1014.4
20260906075903 71 122 9.0 13.0 0.00 0.20 0.00 99 1014.3
20260906075404 71 124 7.0 12.0 0.00 0.20 0.00 99 1014.3
20260906074903 71 123 8.0 12.0 0.00 0.20 0.00 99 1014.3
20260906074404 71 130 7.0 12.0 0.00 0.20 0.00 99 1014.4
20260906073903 71 125 9.0 14.0 0.00 0.20 0.00 99 1014.3
20260906073404 71 121 9.0 13.0 0.00 0.20 0.00 99 1014.1
20260906072904 71 122 9.0 12.0 0.00 0.20 0.00 99 1014.3
20260906072403 71 118 8.0 10.0 0.00 0.20 0.00 99 1014.3
20260906071904 71 120 9.0 12.0 0.00 0.20 0.00 99 1014.3
20260906070904 72 122 9.0 13.0 0.00 0.20 0.00 99 1014.4
20260906070404 72 121 9.0 12.0 0.00 0.20 0.00 99 1014.4
20260906065903 72 122 9.0 12.0 0.00 0.20 0.00 99 1014.4
20260906065403 72 128 8.0 12.0 0.00 0.20 0.00 99 1014.5
20260906064904 72 125 7.0 12.0 0.00 0.20 0.00 99 1014.4
20260906064403 72 132 7.0 12.0 0.00 0.20 0.00 99 1014.4
20260906063904 72 125 9.0 12.0 0.00 0.20 0.00 99 1014.6
20260906063404 72 128 9.0 13.0 0.00 0.20 0.00 99 1014.6
20260906062904 72 122 9.0 13.0 0.00 0.20 0.00 99 1014.5
20260906062404 72 123 10.0 13.0 0.00 0.20 0.00 99 1014.5
20260906061903 72 119 8.0 15.0 0.00 0.20 0.00 99 1014.6
20260906060903 72 116 9.0 14.0 0.00 0.20 0.00 99 1014.6
20260906060403 72 114 10.0 12.0 0.00 0.20 0.00 99 1014.6
20260906055904 72 117 10.0 13.0 0.00 0.20 0.00 99 1014.6
20260906055403 73 122 11.0 15.0 0.00 0.20 0.00 99 1014.5
20260906054904 73 131 10.0 14.0 0.00 0.20 0.00 99 1014.5
20260906053904 73 118 11.0 15.0 0.00 0.20 0.00 99 1014.6
20260906053404 73 123 10.0 13.0 0.00 0.20 0.00 99 1014.6
20260906052904 73 120 7.0 12.0 0.00 0.20 0.00 99 1014.6
20260906052404 73 113 8.0 12.0 0.00 0.20 0.00 99 1014.5
20260906051904 73 111 9.0 12.0 0.00 0.20 0.00 98 1014.5
20260906051404 73 108 7.0 9.0 0.00 0.20 0.00 98 1014.5
20260906050903 73 111 8.0 12.0 0.00 0.20 0.00 98 1014.6
20260906050403 73 109 6.0 8.0 0.00 0.20 0.00 98 1014.6
20260906045903 73 123 7.0 9.0 0.00 0.20 0.20 98 1014.6
20260906045404 73 128 6.0 10.0 0.00 0.20 0.20 98 1014.5
20260906044404 74 122 7.0 10.0 0.00 0.20 0.20 98 1014.5
20260906043904 74 138 6.0 8.0 0.00 0.20 0.20 98 1014.5
20260906043403 74 133 5.0 9.0 0.00 0.20 0.20 98 1014.4
20260906042904 74 125 5.0 7.0 0.00 0.20 0.20 98 1014.2
20260906042404 74 125 5.0 8.0 0.00 0.20 0.20 98 1014.2
20260906041404 74 124 6.0 7.0 0.00 0.20 0.20 98 1014.2
20260906040903 74 115 5.0 8.0 0.00 0.20 0.20 98 1014.2
20260906040403 74 111 6.0 9.0 0.00 0.20 0.20 98 1014.1
20260906035904 74 108 7.0 9.0 0.00 0.20 0.20 98 1014.1
20260906035404 74 106 7.0 10.0 0.00 0.20 0.20 98 1014.0
20260906034403 74 112 6.0 8.0 0.00 0.20 0.20 97 1014.0
20260906033904 74 100 6.0 9.0 0.00 0.20 0.20 97 1014.0
20260906033404 75 108 6.0 9.0 0.00 0.20 0.20 97 1014.0
20260906032903 75 94 6.0 8.0 0.00 0.20 0.20 97 1014.1
20260906032404 75 93 5.0 7.0 0.00 0.20 0.20 96 1014.2
20260906031404 75 93 6.0 9.0 0.00 0.20 0.20 96 1014.3
20260906030403 75 88 7.0 9.0 0.00 0.20 0.20 96 1014.4
20260906025903 75 82 4.0 9.0 0.00 0.20 0.20 96 1014.5
20260906025404 75 78 6.0 9.0 0.00 0.20 0.20 96 1014.4
20260906024904 76 85 5.0 8.0 0.00 0.20 0.20 96 1014.4
20260906024403 76 81 6.0 9.0 0.00 0.20 0.20 96 1014.4
20260906023904 76 80 4.0 8.0 0.00 0.20 0.20 96 1014.4
20260906023404 76 80 3.0 5.0 0.00 0.20 0.20 96 1014.5
20260906022904 76 80 4.0 8.0 0.00 0.20 0.20 95 1014.2
20260906022403 76 80 3.0 7.0 0.00 0.20 0.20 95 1014.0
20260906021903 75 80 2.0 5.0 0.00 0.20 0.20 94 1014.0
20260906021404 76 80 3.0 5.0 0.00 0.20 0.20 94 1014.0
20260906020404 76 80 3.0 7.0 0.00 0.20 0.20 93 1014.2
20260906015903 76 80 4.0 7.0 0.00 0.20 0.20 93 1014.2
20260906014904 77 80 3.0 5.0 0.00 0.20 0.20 93 1014.1
20260906014404 77 80 3.0 5.0 0.00 0.20 0.20 93 1014.1
20260906013903 76 80 4.0 7.0 0.00 0.20 0.20 93 1014.0
20260906013403 76 85 4.0 8.0 0.00 0.20 0.20 93 1013.7
20260906012403 76 97 2.0 3.0 0.00 0.20 0.20 92 1013.6
20260906011904 76 97 2.0 3.0 0.00 0.20 0.20 92 1013.6
20260906011403 76 97 2.0 3.0 0.00 0.20 0.20 91 1013.7
20260906010903 77 97 1.0 2.0 0.00 0.20 0.20 90 1013.5
20260906010403 77 97 2.0 3.0 0.00 0.20 0.20 90 1013.5
20260906005903 77 97 3.0 6.0 0.00 0.20 0.20 90 1013.4
20260906005403 78 97 2.0 3.0 0.00 0.20 0.20 90 1013.5
20260906004404 78 97 3.0 6.0 0.00 0.20 0.20 89 1013.5
20260906003904 78 97 3.0 3.0 0.00 0.20 0.20 88 1013.5
20260906003403 78 97 3.0 3.0 0.00 0.20 0.20 87 1013.4
20260906002903 79 97 3.0 6.0 0.00 0.20 0.20 87 1013.5
20260906001904 80 97 5.0 7.0 0.00 0.20 0.20 85 1013.5
20260906001404 80 97 6.0 9.0 0.00 0.20 0.20 84 1013.5
20260906000904 80 94 5.0 8.0 0.00 0.20 0.20 84 1013.4
20260906000403 80 113 7.0 12.0 0.00 0.20 0.20 83 1013.4
20260905235903 81 103 6.0 10.0 0.00 0.20 0.20 83 1013.4
20260905235403 81 95 7.0 12.0 0.00 0.20 0.20 82 1013.4
20260905234403 81 99 10.0 13.0 0.00 0.20 0.20 80 1013.3
20260905233904 82 105 12.0 15.0 0.00 0.20 0.20 79 1013.3
20260905233405 82 101 10.0 14.0 0.00 0.20 0.20 79 1013.4
20260905232904 82 102 12.0 16.0 0.00 0.20 0.20 78 1013.4
20260905232403 82 108 9.0 13.0 0.00 0.20 0.20 79 1013.3
20260905231903 82 113 9.0 13.0 0.00 0.20 0.20 79 1013.3
20260905231404 82 112 13.0 16.0 0.00 0.20 0.20 77 1013.3
20260905230903 82 123 11.0 15.0 0.00 0.20 0.20 78 1013.3
20260905230404 82 118 13.0 17.0 0.00 0.20 0.20 77 1013.3
20260905225903 82 117 12.0 17.0 0.00 0.20 0.20 77 1013.2
20260905225404 82 114 10.0 16.0 0.00 0.20 0.20 78 1013.2
20260905224904 82 121 11.0 16.0 0.00 0.20 0.20 77 1013.2
20260905223904 82 121 10.0 14.0 0.00 0.20 0.20 77 1013.1
20260905223404 82 123 11.0 14.0 0.00 0.20 0.20 76 1013.0
20260905222404 82 101 10.0 14.0 0.00 0.20 0.20 74 1013.0
20260905221904 83 118 11.0 16.0 0.00 0.20 0.20 74 1012.9
20260905221404 83 122 10.0 14.0 0.00 0.20 0.20 74 1012.9
20260905220404 83 112 10.0 13.0 0.00 0.20 0.20 73 1012.7
20260905215903 83 119 9.0 15.0 0.00 0.20 0.20 74 1012.7
20260905215404 83 120 12.0 14.0 0.00 0.20 0.20 73 1012.6
20260905214904 82 104 11.0 16.0 0.00 0.20 0.20 74 1012.5
20260905214403 83 101 12.0 17.0 0.00 0.20 0.20 72 1012.5
20260905212904 82 117 11.0 14.0 0.00 0.20 0.20 73 1012.5
20260905212403 82 119 10.0 13.0 0.00 0.20 0.20 73 1012.5
20260905211904 82 104 10.0 16.0 0.00 0.20 0.20 73 1012.4
20260905210903 82 97 10.0 16.0 0.00 0.20 0.20 73 1012.5
20260905210403 82 93 9.0 13.0 0.00 0.20 0.20 73 1012.5
20260905205903 82 114 8.0 12.0 0.00 0.20 0.20 73 1012.6
20260905205404 83 119 9.0 14.0 0.00 0.20 0.20 72 1012.6
20260905204903 83 103 10.0 13.0 0.00 0.20 0.20 72 1012.6
20260905204404 83 112 11.0 14.0 0.00 0.20 0.20 70 1012.7
20260905203904 83 116 12.0 15.0 0.00 0.20 0.20 69 1012.7
20260905202904 83 92 10.0 14.0 0.00 0.20 0.20 68 1012.6
20260905201903 83 105 12.0 17.0 0.00 0.20 0.20 69 1012.5
20260905201403 83 100 12.0 16.0 0.00 0.20 0.20 70 1012.5
20260905200904 83 108 14.0 17.0 0.00 0.20 0.20 70 1012.3
20260905200404 83 103 13.0 17.0 0.00 0.20 0.20 70 1012.3
20260905195904 84 80 12.0 20.0 0.00 0.20 0.20 70 1012.3
20260905195407 84 92 13.0 16.0 0.00 0.20 0.20 69 1012.4
20260905194903 83 96 12.0 16.0 0.00 0.20 0.20 72 1012.4
20260905194404 82 106 11.0 14.0 0.00 0.20 0.20 73 1012.5
20260905193903 82 83 10.0 15.0 0.00 0.20 0.20 72 1012.3
20260905193404 82 91 10.0 13.0 0.00 0.20 0.20 71 1012.7
20260905192904 82 86 11.0 17.0 0.00 0.20 0.20 71 1012.8
20260905192404 82 91 12.0 16.0 0.00 0.20 0.20 71 1012.8
20260905191904 81 92 12.0 17.0 0.00 0.20 0.20 73 1012.9
20260905191403 80 101 12.0 16.0 0.00 0.20 0.20 75 1013.0
20260905190403 80 125 13.0 18.0 0.00 0.20 0.20 76 1013.2
20260905185904 81 117 13.0 18.0 0.00 0.20 0.20 75 1013.1
20260905185404 84 124 13.0 20.0 0.00 0.20 0.20 75 1013.1
20260905184904 84 130 9.0 12.0 0.00 0.20 0.20 70 1012.9
20260905184403 84 128 5.0 8.0 0.00 0.20 0.20 73 1012.9
20260905183903 83 139 4.0 5.0 0.00 0.20 0.20 70 1012.8
20260905183403 83 139 3.0 5.0 0.00 0.20 0.20 70 1012.6